Wind_Speed
2 1 1 2 1 1 1 1 1 2 2 2 3 3 2 2 2 4 5 5 5 5 5 6 6 6 6 6 6 6 6 6 6 7 7 7 7 8 9 9 8 7 8
2 1 1 1 2 2 2 2 2 3 3 3 3 3 3 3 3 3 4 5 5 6 6 7 7 7 7 7 6 7 6 6 6 7 7 8 8 9 9 9 9 9 9
2 1 1 1 2 2 2 3 3 4 4 4 3 4 3 3 3 4 4 5 5 6 7 7 8 7 7 7 7 7 7 7 7 8 8 8 9 9 9 9 9 9 9
3 2 2 1 2 2 3 4 4 4 4 4 4 4 4 5 5 5 5 6 6 6 7 8 8 8 8 7 7 8 8 8 8 8 8 8 9 9 10 10 10 10 10
4 3 2 1 1 2 3 4 4 4 4 4 4 4 5 5 6 6 6 6 6 7 7 8 8 8 9 9 9 8 8 8 8 8 9 9 10 10 10 10 10 10 10
3 3 3 2 2 3 3 3 4 4 4 4 5 5 5 6 7 7 7 7 8 8 8 8 8 8 9 9 9 9 8 9 9 9 10 9 9 10 10 10 11 11 10
4 3 3 3 4 5 4 4 5 5 6 6 6 6 6 7 7 8 8 8 9 9 9 9 9 10 10 9 10 9 9 10 10 11 10 10 10 10 10 11 11 11 12
4 4 4 4 5 6 6 5 6 6 6 7 7 7 7 8 8 8 9 9 9 10 10 10 11 11 10 10 10 10 10 10 10 11 11 11 11 11 12 12 13 13 13
4 4 5 5 6 6 7 7 6 7 8 8 8 8 7 7 9 9 10 10 10 11 12 12 12 12 13 12 11 11 11 12 12 12 12 13 12 13 14 14 14 14 14
5 6 6 6 7 7 7 7 7 8 8 8 9 9 9 10 10 10 11 12 12 12 13 14 14 13 13 13 13 13 13 13 13 13 14 14 15 15 15 15 14 14 14
6 6 7 7 8 8 8 8 8 9 9 9 10 10 11 11 12 12 12 13 13 14 14 15 15 15 15 15 14 14 14 14 14 14 15 15 15 16 16 15 15 15 15
6 6 7 7 8 9 9 8 9 9 11 11 11 12 12 13 13 14 14 14 14 15 15 16 16 16 16 16 16 16 15 15 16 16 16 17 17 17 17 16 16 16 16
7 7 8 8 9 10 10 11 10 11 12 12 13 13 14 15 16 15 15 16 16 16 16 16 16 17 17 17 17 17 16 17 17 17 17 17 18 18 17 17 18 18 17
8 8 9 10 10 11 11 12 12 12 14 13 14 15 15 16 16 16 17 17 17 16 16 16 17 17 17 18 18 18 18 18 18 18 18 18 19 19 19 19 19 19 18
9 10 10 11 11 12 12 13 13 13 14 14 14 16 16 16 17 17 17 17 17 16 16 17 17 17 18 18 18 18 18 19 19 19 20 20 20 20 20 19 20 20 20
10 11 12 12 13 13 14 14 15 13 14 14 15 16 16 18 18 18 17 17 17 17 16 16 17 17 18 18 18 18 18 19 20 20 21 21 21 21 21 20 20 20 20
12 12 13 13 13 14 15 15 15 14 14 15 16 16 17 18 18 18 17 17 17 17 16 16 17 18 18 18 19 20 20 20 20 21 21 21 21 21 21 20 21 21 21
14 13 14 14 14 15 15 15 15 16 16 17 17 17 17 18 17 17 17 17 18 17 17 17 18 18 18 20 20 21 21 21 21 22 22 21 21 22 22 22 22 21 22
14 14 14 15 15 16 16 16 16 17 18 18 18 17 18 18 17 17 18 18 18 18 18 18 17 18 19 20 20 21 22 22 22 22 22 22 22 22 22 23 23 23 23
16 16 16 17 17 18 18 18 18 19 20 20 19 18 18 18 18 18 18 18 18 19 19 19 19 19 20 20 20 21 21 21 22 22 21 21 21 22 22 23 23 24 24
18 18 19 20 20 20 20 20 20 21 21 21 21 19 19 19 19 19 19 19 19 19 19 19 20 20 21 21 21 21 22 22 22 22 22 21 22 22 22 23 23 23 24
20 20 20 21 22 22 22 22 22 22 23 22 22 21 21 21 21 21 21 20 20 20 20 20 21 21 22 22 22 23 23 23 23 22 22 23 23 23 23 23 23 24 24
23 23 23 23 23 24 24 24 24 24 24 24 23 23 23 23 23 22 22 21 21 22 22 22 22 22 23 23 24 24 24 24 23 23 23 23 23 23 23 23 24 24 25
25 25 25 24 24 24 25 25 26 26 26 24 24 25 25 25 24 24 23 23 24 23 23 23 23 23 24 24 24 24 24 25 25 25 25 24 24 24 24 25 25 25 25
25 26 26 27 27 27 27 27 27 26 26 26 26 26 26 26 25 26 26 26 25 25 25 25 25 25 25 25 25 25 25 25 24 24 26 26 26 26 27 27 27 28 28
27 27 28 28 29 28 28 28 27 27 27 27 27 27 27 26 27 27 27 26 25 25 26 26 26 26 26 26 26 26 26 26 26 26 27 27 27 27 27 28 28 29 29
Wind_Direction
82 111 175 193 194 204 221 252 269 294 297 308 306 311 306 316 295 268 264 271 270 271 276 282 283 287 288 290 292 291 291 289 289 285 280 275 269 266 265 263 265 265 260
76 74 202 214 228 234 237 248 266 279 297 310 304 306 293 297 291 275 267 271 275 278 278 282 280 280 281 282 286 288 288 286 285 285 283 278 274 270 262 264 266 263 258
55 32 313 270 254 246 247 263 271 281 291 297 293 297 287 297 297 285 286 286 282 281 280 279 277 279 282 287 285 285 286 286 285 287 283 281 276 267 264 264 264 266 262
34 22 3 326 303 287 278 280 283 286 293 289 296 292 289 291 298 297 298 294 288 284 286 282 279 281 285 285 286 285 285 285 285 286 283 280 274 269 267 265 264 264 261
29 25 8 343 329 315 303 295 289 287 291 287 291 285 286 289 290 291 293 291 290 290 290 284 281 283 285 285 282 284 280 284 284 286 286 283 277 273 273 270 267 266 265
9 3 350 337 318 313 312 306 298 292 288 289 291 293 288 286 285 288 291 294 291 289 289 284 286 287 287 286 281 281 282 285 284 281 277 277 275 277 278 274 271 271 269
349 342 334 321 308 306 305 297 289 290 289 288 293 298 296 293 293 291 292 293 288 285 290 287 288 288 288 289 285 279 280 281 279 274 273 278 281 281 277 274 276 272 268
344 333 324 316 310 307 303 295 295 292 291 292 294 293 292 297 295 291 292 293 289 287 288 289 290 289 289 291 285 280 277 276 279 279 275 276 275 274 279 282 278 274 272
345 332 322 318 313 309 304 299 297 297 294 291 291 292 288 290 294 295 291 291 291 289 286 287 290 289 290 292 287 281 276 277 279 281 279 276 277 283 282 281 277 277 273
337 330 323 319 316 316 310 302 301 303 300 300 300 297 294 290 290 291 290 290 288 287 286 284 286 287 289 288 286 282 278 277 278 279 279 279 279 284 284 281 279 279 275
334 325 320 316 316 314 315 311 304 302 301 301 302 302 301 298 293 289 288 288 288 287 284 282 284 284 283 282 281 282 283 283 281 281 280 280 281 284 285 282 281 279 279
324 319 317 317 314 319 317 312 309 308 305 304 304 302 299 298 295 292 291 290 287 287 285 284 282 280 279 278 278 279 282 282 282 283 282 280 279 281 283 282 284 281 282
320 319 320 318 316 318 318 315 309 304 303 304 304 304 301 299 294 291 289 288 286 285 284 283 282 279 274 274 274 275 276 278 280 282 282 281 279 280 283 281 282 281 280
314 314 314 312 313 314 313 313 304 300 301 303 303 305 302 299 298 295 291 288 287 286 284 283 281 280 277 273 272 274 275 276 279 281 281 281 280 280 283 284 281 279 277
309 309 309 309 310 312 313 313 310 305 305 304 302 304 302 298 298 297 294 291 289 287 284 284 280 278 275 275 275 275 276 277 279 280 280 279 280 280 280 281 280 278 275
306 307 307 307 309 311 313 313 315 311 310 304 304 305 303 303 300 297 294 292 291 289 286 282 280 277 274 273 273 274 276 277 278 279 279 280 279 279 279 278 278 278 275
304 304 306 306 307 309 310 313 314 311 310 310 309 307 306 304 299 299 299 296 293 290 288 283 280 279 277 276 275 275 275 276 276 278 280 279 278 280 280 279 277 278 276
305 306 306 304 304 306 308 310 311 310 308 309 310 311 309 307 304 301 300 298 296 293 288 284 282 282 281 280 277 276 275 276 276 277 279 279 279 280 279 278 277 276 275
304 304 305 304 304 304 305 306 307 307 306 307 309 308 308 307 303 301 299 297 294 292 290 288 284 285 288 285 280 277 276 276 276 277 278 277 278 281 280 276 275 274 274
300 302 302 302 302 301 301 301 303 304 305 306 305 306 306 306 304 300 299 298 294 292 290 289 285 285 288 284 282 280 280 279 278 279 280 280 280 281 280 278 277 277 277
296 298 300 300 297 295 296 297 298 300 301 303 304 303 302 300 302 302 300 299 297 295 292 289 288 286 288 286 283 282 282 282 282 282 282 284 284 282 282 282 281 280 280
298 300 300 298 297 295 293 294 295 297 299 299 299 300 300 300 299 300 300 298 297 296 293 291 290 288 288 287 283 283 283 283 281 281 282 284 285 283 282 282 283 283 282
296 299 297 297 297 297 293 294 295 295 296 297 296 296 297 296 296 296 296 299 300 296 293 293 292 291 289 289 285 283 283 283 281 280 281 283 282 282 282 282 283 285 285
293 296 296 297 296 296 293 292 292 294 293 294 294 294 294 293 292 293 293 295 297 297 293 293 293 292 290 289 288 286 285 284 283 281 280 281 280 280 281 282 282 282 283
291 293 295 295 294 293 292 291 291 291 290 290 290 292 293 293 291 291 291 292 293 292 292 293 293 293 292 290 288 286 286 285 285 283 281 280 279 279 281 282 282 283 283
291 292 293 294 294 293 291 291 291 290 292 291 290 291 291 291 290 289 290 291 290 290 290 290 291 292 290 289 288 287 287 287 284 283 282 281 279 280 281 281 281 281 282
Height
5889 5889 5889 5890 5890 5890 5890 5890 5890 5890 5889 5889 5889 5889 5889 5888 5888 5888 5888 5888 5888 5888 5888 5887 5887 5887 5886 5886 5885 5885 5885 5884 5884 5884 5883 5883 5883 5883 5882 5882 5882 5883 5883
5889 5889 5889 5889 5890 5890 5890 5890 5890 5889 5889 5889 5889 5889 5888 5888 5888 5887 5887 5887 5887 5887 5886 5886 5886 5885 5885 5884 5884 5884 5883 5883 5882 5882 5881 5881 5881 5880 5880 5881 5881 5881 5881
5889 5889 5889 5889 5889 5889 5889 5889 5889 5889 5889 5888 5888 5888 5888 5887 5887 5887 5886 5886 5885 5885 5885 5884 5884 5884 5883 5883 5882 5882 5881 5881 5881 5880 5880 5879 5879 5879 5879 5879 5879 5879 5879
5890 5889 5889 5889 5889 5889 5889 5889 5889 5888 5888 5888 5888 5887 5887 5887 5886 5886 5885 5885 5884 5884 5883 5883 5882 5882 5881 5881 5880 5880 5880 5879 5879 5878 5878 5877 5877 5877 5877 5877 5877 5877 5877
5890 5889 5889 5889 5889 5889 5888 5888 5888 5888 5887 5887 5887 5887 5886 5886 5885 5885 5884 5884 5883 5882 5882 5881 5881 5880 5879 5879 5878 5878 5877 5877 5877 5876 5875 5875 5875 5875 5875 5875 5874 5874 5874
5890 5890 5889 5889 5889 5889 5888 5888 5887 5887 5887 5886 5886 5885 5885 5884 5884 5883 5883 5882 5881 5881 5880 5879 5879 5878 5877 5877 5876 5875 5875 5875 5874 5874 5873 5873 5873 5872 5872 5872 5872 5872 5872
5890 5890 5889 5889 5888 5888 5888 5887 5887 5886 5886 5885 5885 5884 5883 5883 5882 5881 5881 5880 5879 5879 5878 5877 5877 5876 5875 5874 5874 5873 5873 5872 5872 5871 5871 5871 5870 5870 5870 5870 5870 5869 5869
5890 5890 5889 5888 5888 5887 5886 5886 5885 5885 5884 5884 5883 5883 5882 5882 5880 5879 5878 5878 5877 5877 5876 5875 5874 5873 5873 5872 5871 5871 5870 5870 5869 5869 5868 5868 5868 5868 5867 5867 5867 5866 5866
5890 5889 5888 5888 5887 5886 5885 5885 5884 5883 5883 5882 5881 5881 5880 5880 5879 5878 5877 5876 5875 5874 5873 5872 5871 5871 5870 5869 5868 5868 5867 5867 5866 5865 5865 5865 5864 5864 5864 5863 5863 5862 5862
5890 5889 5888 5887 5886 5885 5884 5883 5882 5882 5881 5880 5879 5879 5878 5877 5876 5875 5874 5873 5872 5871 5870 5869 5869 5868 5867 5866 5865 5865 5864 5863 5863 5862 5862 5861 5861 5860 5860 5859 5858 5858 5857
5889 5888 5887 5886 5885 5883 5882 5881 5880 5880 5879 5878 5877 5876 5875 5874 5872 5872 5871 5870 5869 5868 5867 5866 5865 5864 5863 5863 5862 5861 5861 5860 5860 5859 5858 5857 5857 5856 5855 5854 5854 5853 5853
5888 5887 5885 5884 5883 5881 5880 5879 5878 5877 5876 5875 5874 5873 5872 5871 5869 5868 5868 5867 5865 5864 5863 5862 5861 5860 5859 5859 5858 5858 5857 5856 5856 5855 5854 5854 5853 5852 5851 5850 5850 5849 5848
5886 5885 5884 5883 5882 5880 5878 5877 5876 5875 5873 5872 5870 5869 5868 5867 5866 5865 5864 5863 5861 5860 5859 5858 5857 5856 5855 5854 5854 5853 5853 5852 5852 5851 5850 5849 5848 5847 5847 5846 5845 5844 5844
5884 5883 5882 5881 5879 5878 5876 5875 5873 5872 5870 5868 5867 5865 5863 5862 5861 5860 5859 5858 5857 5856 5855 5854 5852 5851 5850 5850 5849 5849 5848 5848 5847 5846 5846 5845 5844 5843 5842 5841 5840 5840 5839
5882 5881 5880 5878 5876 5875 5873 5872 5870 5868 5866 5865 5863 5861 5859 5858 5857 5855 5854 5853 5852 5851 5850 5849 5848 5847 5846 5845 5844 5844 5843 5843 5842 5841 5841 5840 5839 5838 5836 5836 5835 5834 5834
5879 5878 5877 5875 5873 5872 5870 5868 5867 5865 5863 5861 5859 5857 5855 5853 5852 5850 5848 5847 5847 5846 5845 5844 5843 5842 5841 5840 5839 5839 5838 5837 5837 5836 5835 5834 5833 5832 5831 5830 5830 5829 5829
5877 5875 5874 5872 5870 5869 5867 5865 5863 5862 5860 5858 5855 5853 5851 5849 5847 5845 5844 5843 5842 5841 5840 5839 5838 5837 5836 5835 5834 5833 5832 5832 5831 5830 5829 5828 5827 5827 5826 5825 5824 5823 5823
5874 5872 5870 5869 5867 5865 5864 5862 5860 5858 5856 5854 5851 5850 5847 5845 5843 5841 5840 5838 5837 5836 5835 5834 5833 5831 5830 5829 5828 5828 5827 5826 5825 5824 5823 5822 5821 5821 5820 5819 5818 5818 5817
5870 5868 5867 5865 5863 5862 5860 5858 5856 5854 5852 5850 5847 5845 5843 5841 5839 5837 5836 5834 5833 5831 5829 5828 5827 5826 5825 5823 5822 5821 5820 5820 5819 5818 5817 5816 5815 5814 5814 5813 5812 5811 5811
5866 5864 5862 5861 5859 5857 5856 5854 5852 5850 5848 5845 5843 5841 5839 5837 5835 5833 5831 5829 5827 5826 5824 5823 5822 5821 5819 5817 5816 5815 5814 5813 5813 5812 5810 5810 5809 5808 5807 5806 5806 5805 5805
5861 5859 5858 5856 5854 5852 5851 5849 5847 5845 5843 5841 5838 5836 5834 5832 5830 5828 5826 5824 5822 5821 5819 5818 5816 5815 5813 5811 5810 5809 5808 5808 5807 5805 5805 5804 5803 5802 5801 5800 5799 5799 5798
5856 5854 5853 5851 5849 5847 5845 5844 5842 5840 5837 5835 5833 5831 5829 5827 5825 5823 5821 5819 5817 5815 5814 5812 5810 5809 5807 5805 5804 5803 5802 5801 5800 5800 5799 5798 5797 5796 5794 5794 5793 5792 5791
5851 5850 5848 5846 5844 5841 5839 5838 5835 5833 5831 5830 5828 5826 5824 5822 5820 5818 5815 5814 5812 5809 5808 5806 5804 5802 5800 5799 5797 5796 5795 5794 5793 5793 5792 5791 5790 5789 5788 5787 5786 5785 5784
5845 5843 5842 5839 5837 5835 5833 5831 5829 5826 5825 5823 5821 5819 5817 5815 5813 5811 5809 5808 5806 5804 5801 5799 5798 5796 5794 5792 5791 5789 5788 5787 5786 5785 5784 5784 5783 5782 5780 5779 5778 5778 5777
5838 5836 5835 5832 5830 5828 5826 5824 5821 5819 5817 5816 5814 5812 5810 5808 5807 5805 5803 5801 5799 5797 5795 5793 5791 5789 5787 5785 5783 5782 5781 5780 5779 5777 5776 5775 5775 5774 5773 5772 5770 5769 5768
5831 5829 5827 5825 5822 5820 5818 5816 5814 5812 5810 5809 5807 5805 5803 5801 5799 5797 5796 5794 5792 5790 5788 5786 5784 5782 5780 5778 5776 5775 5773 5772 5771 5770 5768 5767 5766 5765 5765 5764 5762 5761 5759